Location: Dittelbrunn
(50.0738°N, 10.2196°E)
Time: 13:29:17
(UTC+00:00)

GP-B - Pass Details

Date: 18 September 2020
Orbit: 631 x 635 km, 89.8° (Epoch: 25 October)

Event Time Altitude Azimuth Distance (km) Brightness Sun altitude
Rises 18:17:14 0° 356° (N) 2,947 6.8 -9.1°
Reaches altitude 10° 18:19:33 10° 350° (N) 2,032 6.0 -9.4°
Maximum altitude 18:23:47 44° 279° (W) 878 4.5 -10.1°
Drops below altitude 10° 18:27:59 10° 207° (SSW) 2,014 5.8 -10.7°
Sets 18:30:16 0° 201° (SSW) 2,916 6.6 -11.1°
